Year,Month,Day,Hour,Minute,Value (Times are PST for temperature in C)
2016,02,14,00,00,6.00
2016,02,14,00,01,6.00
2016,02,14,00,02,6.10
2016,02,14,00,03,6.10
2016,02,14,00,04,6.10
2016,02,14,00,05,6.10
2016,02,14,00,06,6.10
2016,02,14,00,07,6.10
2016,02,14,00,08,6.10
2016,02,14,00,09,6.10
2016,02,14,00,10,6.10
2016,02,14,00,11,6.20
2016,02,14,00,12,6.20
2016,02,14,00,13,6.20
2016,02,14,00,14,6.20
2016,02,14,00,15,6.20
2016,02,14,00,16,6.20
2016,02,14,00,17,6.20
2016,02,14,00,18,6.20
2016,02,14,00,19,6.20
2016,02,14,00,20,6.20
2016,02,14,00,21,6.20
2016,02,14,00,22,6.20
2016,02,14,00,23,6.10
2016,02,14,00,24,6.10
2016,02,14,00,25,6.10
2016,02,14,00,26,6.10
2016,02,14,00,27,6.10
2016,02,14,00,28,6.10
2016,02,14,00,29,6.10
2016,02,14,00,30,6.20
2016,02,14,00,31,6.20
2016,02,14,00,32,6.20
2016,02,14,00,33,6.20
2016,02,14,00,34,6.20
2016,02,14,00,35,6.20
2016,02,14,00,36,6.20
2016,02,14,00,37,6.20
2016,02,14,00,38,6.30
2016,02,14,00,39,6.30
2016,02,14,00,40,6.20
2016,02,14,00,41,6.20
2016,02,14,00,42,6.30
2016,02,14,00,43,6.20
2016,02,14,00,44,6.20
2016,02,14,00,45,6.30
2016,02,14,00,46,6.30
2016,02,14,00,47,6.30
2016,02,14,00,48,6.30
2016,02,14,00,49,6.30
2016,02,14,00,50,6.20
2016,02,14,00,51,6.20
2016,02,14,00,52,6.20
2016,02,14,00,53,6.20
2016,02,14,00,54,6.20
2016,02,14,00,55,6.20
2016,02,14,00,56,6.20
2016,02,14,00,57,6.20
2016,02,14,00,58,6.30
2016,02,14,00,59,6.30
2016,02,14,01,00,6.30
2016,02,14,01,01,6.30
2016,02,14,01,02,6.30
2016,02,14,01,03,6.30
2016,02,14,01,04,6.30
2016,02,14,01,05,6.30
2016,02,14,01,06,6.30
2016,02,14,01,07,6.30
2016,02,14,01,08,6.30
2016,02,14,01,09,6.30
2016,02,14,01,10,6.30
2016,02,14,01,11,6.30
2016,02,14,01,12,6.30
2016,02,14,01,13,6.30
2016,02,14,01,14,6.30
2016,02,14,01,15,6.30
2016,02,14,01,16,6.30
2016,02,14,01,17,6.30
2016,02,14,01,18,6.30
2016,02,14,01,19,6.30
2016,02,14,01,20,6.30
2016,02,14,01,21,6.30
2016,02,14,01,22,6.30
2016,02,14,01,23,6.20
2016,02,14,01,24,6.20
2016,02,14,01,25,6.20
2016,02,14,01,26,6.20
2016,02,14,01,27,6.20
2016,02,14,01,28,6.20
2016,02,14,01,29,6.10
2016,02,14,01,30,6.10
2016,02,14,01,31,6.10
2016,02,14,01,32,6.10
2016,02,14,01,33,6.10
2016,02,14,01,34,6.10
2016,02,14,01,35,6.10
2016,02,14,01,36,6.00
2016,02,14,01,37,6.00
2016,02,14,01,38,6.00
2016,02,14,01,39,6.00
2016,02,14,01,40,6.00
2016,02,14,01,41,6.00
2016,02,14,01,42,6.00
2016,02,14,01,43,5.90
2016,02,14,01,44,5.90
2016,02,14,01,45,5.90
2016,02,14,01,46,5.90
2016,02,14,01,47,5.90
2016,02,14,01,48,5.90
2016,02,14,01,49,5.90
2016,02,14,01,50,5.90
2016,02,14,01,51,5.90
2016,02,14,01,52,6.00
2016,02,14,01,53,6.00
2016,02,14,01,54,6.00
2016,02,14,01,55,6.00
2016,02,14,01,56,6.00
2016,02,14,01,57,6.00
2016,02,14,01,58,6.00
2016,02,14,01,59,6.00
2016,02,14,02,00,6.00
2016,02,14,02,01,6.00
2016,02,14,02,02,6.00
2016,02,14,02,03,6.00
2016,02,14,02,04,6.00
2016,02,14,02,05,6.00
2016,02,14,02,06,6.00
2016,02,14,02,07,6.00
2016,02,14,02,08,6.00
2016,02,14,02,09,6.00
2016,02,14,02,10,6.00
2016,02,14,02,11,6.00
2016,02,14,02,12,6.00
2016,02,14,02,13,6.00
2016,02,14,02,14,6.10
2016,02,14,02,15,6.10
2016,02,14,02,16,6.10
2016,02,14,02,17,6.10
2016,02,14,02,18,6.10
2016,02,14,02,19,6.10
2016,02,14,02,20,6.10
2016,02,14,02,21,6.10
2016,02,14,02,22,6.10
2016,02,14,02,23,6.10
2016,02,14,02,24,6.10
2016,02,14,02,25,6.10
2016,02,14,02,26,6.10
2016,02,14,02,27,6.10
2016,02,14,02,28,6.10
2016,02,14,02,29,6.20
2016,02,14,02,30,6.20
2016,02,14,02,31,6.20
2016,02,14,02,32,6.20
2016,02,14,02,33,6.20
2016,02,14,02,34,6.20
2016,02,14,02,35,6.20
2016,02,14,02,36,6.20
2016,02,14,02,37,6.20
2016,02,14,02,38,6.20
2016,02,14,02,39,6.20
2016,02,14,02,40,6.20
2016,02,14,02,41,6.20
2016,02,14,02,42,6.20
2016,02,14,02,43,6.20
2016,02,14,02,44,6.20
2016,02,14,02,45,6.20
2016,02,14,02,46,6.20
2016,02,14,02,47,6.20
2016,02,14,02,48,6.20
2016,02,14,02,49,6.20
2016,02,14,02,50,6.30
2016,02,14,02,51,6.20
2016,02,14,02,52,6.20
2016,02,14,02,53,6.20
2016,02,14,02,54,6.20
2016,02,14,02,55,6.20
2016,02,14,02,56,6.20
2016,02,14,02,57,6.20
2016,02,14,02,58,6.20
2016,02,14,02,59,6.20
2016,02,14,03,00,6.20
2016,02,14,03,01,6.20
2016,02,14,03,02,6.20
2016,02,14,03,03,6.20
2016,02,14,03,04,6.20
2016,02,14,03,05,6.20
2016,02,14,03,06,6.20
2016,02,14,03,07,6.20
2016,02,14,03,08,6.20
2016,02,14,03,09,6.20
2016,02,14,03,10,6.20
2016,02,14,03,11,6.20
2016,02,14,03,12,6.20
2016,02,14,03,13,6.20
2016,02,14,03,14,6.20
2016,02,14,03,15,6.20
2016,02,14,03,16,6.20
2016,02,14,03,17,6.20
2016,02,14,03,18,6.20
2016,02,14,03,19,6.20
2016,02,14,03,20,6.20
2016,02,14,03,21,6.20
2016,02,14,03,22,6.20
2016,02,14,03,23,6.20
2016,02,14,03,24,6.20
2016,02,14,03,25,6.20
2016,02,14,03,26,6.10
2016,02,14,03,27,6.20
2016,02,14,03,28,6.10
2016,02,14,03,29,6.10
2016,02,14,03,30,6.10
2016,02,14,03,31,6.10
2016,02,14,03,32,6.10
2016,02,14,03,33,6.10
2016,02,14,03,34,6.10
2016,02,14,03,35,6.10
2016,02,14,03,36,6.10
2016,02,14,03,37,6.10
2016,02,14,03,38,6.10
2016,02,14,03,39,6.10
2016,02,14,03,40,6.10
2016,02,14,03,41,6.10
2016,02,14,03,42,6.10
2016,02,14,03,43,6.10
2016,02,14,03,44,6.10
2016,02,14,03,45,6.10
2016,02,14,03,46,6.10
2016,02,14,03,47,6.10
2016,02,14,03,48,6.10
2016,02,14,03,49,6.10
2016,02,14,03,50,6.10
2016,02,14,03,51,6.10
2016,02,14,03,52,6.10
2016,02,14,03,53,6.10
2016,02,14,03,54,6.10
2016,02,14,03,55,6.10
2016,02,14,03,56,6.10
2016,02,14,03,57,6.10
2016,02,14,03,58,6.10
2016,02,14,03,59,6.10
2016,02,14,04,00,6.10
2016,02,14,04,01,6.10
2016,02,14,04,02,6.10
2016,02,14,04,03,6.10
2016,02,14,04,04,6.20
2016,02,14,04,05,6.20
2016,02,14,04,06,6.20
2016,02,14,04,07,6.20
2016,02,14,04,08,6.20
2016,02,14,04,09,6.20
2016,02,14,04,10,6.20
2016,02,14,04,11,6.20
2016,02,14,04,12,6.20
2016,02,14,04,13,6.20
2016,02,14,04,14,6.20
2016,02,14,04,15,6.20
2016,02,14,04,16,6.20
2016,02,14,04,17,6.20
2016,02,14,04,18,6.20
2016,02,14,04,19,6.20
2016,02,14,04,20,6.20
2016,02,14,04,21,6.20
2016,02,14,04,22,6.20
2016,02,14,04,23,6.30
2016,02,14,04,24,6.30
2016,02,14,04,25,6.30
2016,02,14,04,26,6.30
2016,02,14,04,27,6.30
2016,02,14,04,28,6.30
2016,02,14,04,29,6.30
2016,02,14,04,30,6.30
2016,02,14,04,31,6.30
2016,02,14,04,32,6.30
2016,02,14,04,33,6.30
2016,02,14,04,34,6.30
2016,02,14,04,35,6.30
2016,02,14,04,36,6.30
2016,02,14,04,37,6.30
2016,02,14,04,38,6.30
2016,02,14,04,39,6.30
2016,02,14,04,40,6.30
2016,02,14,04,41,6.30
2016,02,14,04,42,6.30
2016,02,14,04,43,6.30
2016,02,14,04,44,6.30
2016,02,14,04,45,6.30
2016,02,14,04,46,6.30
2016,02,14,04,47,6.30
2016,02,14,04,48,6.30
2016,02,14,04,49,6.30
2016,02,14,04,50,6.30
2016,02,14,04,51,6.30
2016,02,14,04,52,6.30
2016,02,14,04,53,6.30
2016,02,14,04,54,6.30
2016,02,14,04,55,6.30
2016,02,14,04,56,6.30
2016,02,14,04,57,6.30
2016,02,14,04,58,6.40
2016,02,14,04,59,6.40
2016,02,14,05,00,6.40
2016,02,14,05,01,6.40
2016,02,14,05,02,6.40
2016,02,14,05,03,6.40
2016,02,14,05,04,6.40
2016,02,14,05,05,6.40
2016,02,14,05,06,6.40
2016,02,14,05,07,6.40
2016,02,14,05,08,6.40
2016,02,14,05,09,6.40
2016,02,14,05,10,6.50
2016,02,14,05,11,6.40
2016,02,14,05,12,6.50
2016,02,14,05,13,6.50
2016,02,14,05,14,6.50
2016,02,14,05,15,6.50
2016,02,14,05,16,6.50
2016,02,14,05,17,6.50
2016,02,14,05,18,6.50
2016,02,14,05,19,6.50
2016,02,14,05,20,6.50
2016,02,14,05,21,6.50
2016,02,14,05,22,6.50
2016,02,14,05,23,6.50
2016,02,14,05,24,6.60
2016,02,14,05,25,6.50
2016,02,14,05,26,6.60
2016,02,14,05,27,6.60
2016,02,14,05,28,6.60
2016,02,14,05,29,6.60
2016,02,14,05,30,6.60
2016,02,14,05,31,6.60
2016,02,14,05,32,6.60
2016,02,14,05,33,6.60
2016,02,14,05,34,6.60
2016,02,14,05,35,6.60
2016,02,14,05,36,6.60
2016,02,14,05,37,6.60
2016,02,14,05,38,6.60
2016,02,14,05,39,6.60
2016,02,14,05,40,6.70
2016,02,14,05,41,6.70
2016,02,14,05,42,6.70
2016,02,14,05,43,6.70
2016,02,14,05,44,6.70
2016,02,14,05,45,6.70
2016,02,14,05,46,6.70
2016,02,14,05,47,6.70
2016,02,14,05,48,6.70
2016,02,14,05,49,6.70
2016,02,14,05,50,6.70
2016,02,14,05,51,6.70
2016,02,14,05,52,6.70
2016,02,14,05,53,6.70
2016,02,14,05,54,6.70
2016,02,14,05,55,6.70
2016,02,14,05,56,6.70
2016,02,14,05,57,6.80
2016,02,14,05,58,6.80
2016,02,14,05,59,6.80
2016,02,14,06,00,6.80
2016,02,14,06,01,6.80
2016,02,14,06,02,6.80
2016,02,14,06,03,6.80
2016,02,14,06,04,6.80
2016,02,14,06,05,6.80
2016,02,14,06,06,6.80
2016,02,14,06,07,6.80
2016,02,14,06,08,6.90
2016,02,14,06,09,6.90
2016,02,14,06,10,6.90
2016,02,14,06,11,7.00
2016,02,14,06,12,7.00
2016,02,14,06,13,7.00
2016,02,14,06,14,7.10
2016,02,14,06,15,7.10
2016,02,14,06,16,7.10
2016,02,14,06,17,7.10
2016,02,14,06,18,7.10
2016,02,14,06,19,7.10
2016,02,14,06,20,7.10
2016,02,14,06,21,7.10
2016,02,14,06,22,7.10
2016,02,14,06,23,7.10
2016,02,14,06,24,7.10
2016,02,14,06,25,7.10
2016,02,14,06,26,7.10
2016,02,14,06,27,7.10
2016,02,14,06,28,7.10
2016,02,14,06,29,7.10
2016,02,14,06,30,7.10
2016,02,14,06,31,7.10
2016,02,14,06,32,7.10
2016,02,14,06,33,7.10
2016,02,14,06,34,7.10
2016,02,14,06,35,7.10
2016,02,14,06,36,7.10
2016,02,14,06,37,7.10
2016,02,14,06,38,7.10
2016,02,14,06,39,7.10
2016,02,14,06,40,7.10
2016,02,14,06,41,7.10
2016,02,14,06,42,7.10
2016,02,14,06,43,7.10
2016,02,14,06,44,7.10
2016,02,14,06,45,7.10
2016,02,14,06,46,7.10
2016,02,14,06,47,7.10
2016,02,14,06,48,7.10
2016,02,14,06,49,7.10
2016,02,14,06,50,7.10
2016,02,14,06,51,7.10
2016,02,14,06,52,7.00
2016,02,14,06,53,7.00
2016,02,14,06,54,7.00
2016,02,14,06,55,7.00
2016,02,14,06,56,6.90
2016,02,14,06,57,6.90
2016,02,14,06,58,6.90
2016,02,14,06,59,6.90
2016,02,14,07,00,6.90
2016,02,14,07,01,6.90
2016,02,14,07,02,6.90
2016,02,14,07,03,6.90
2016,02,14,07,04,6.90
2016,02,14,07,05,6.80
2016,02,14,07,06,6.80
2016,02,14,07,07,6.80
2016,02,14,07,08,6.80
2016,02,14,07,09,6.80
2016,02,14,07,10,6.80
2016,02,14,07,11,6.80
2016,02,14,07,12,6.80
2016,02,14,07,13,6.80
2016,02,14,07,14,6.80
2016,02,14,07,15,6.80
2016,02,14,07,16,6.70
2016,02,14,07,17,6.70
2016,02,14,07,18,6.70
2016,02,14,07,19,6.70
2016,02,14,07,20,6.70
2016,02,14,07,21,6.70
2016,02,14,07,22,6.70
2016,02,14,07,23,6.70
2016,02,14,07,24,6.70
2016,02,14,07,25,6.70
2016,02,14,07,26,6.70
2016,02,14,07,27,6.70
2016,02,14,07,28,6.70
2016,02,14,07,29,6.70
2016,02,14,07,30,6.70
2016,02,14,07,31,6.70
2016,02,14,07,32,6.70
2016,02,14,07,33,6.70
2016,02,14,07,34,6.70
2016,02,14,07,35,6.70
2016,02,14,07,36,6.70
2016,02,14,07,37,6.70
2016,02,14,07,38,6.70
2016,02,14,07,39,6.70
2016,02,14,07,40,6.70
2016,02,14,07,41,6.70
2016,02,14,07,42,6.70
2016,02,14,07,43,6.70
2016,02,14,07,44,6.70
2016,02,14,07,45,6.70
2016,02,14,07,46,6.70
2016,02,14,07,47,6.70
2016,02,14,07,48,6.70
2016,02,14,07,49,6.70
2016,02,14,07,50,6.70
2016,02,14,07,51,6.70
2016,02,14,07,52,6.70
2016,02,14,07,53,6.70
2016,02,14,07,54,6.70
2016,02,14,07,55,6.70
2016,02,14,07,56,6.70
2016,02,14,07,57,6.70
2016,02,14,07,58,6.70
2016,02,14,07,59,6.70
2016,02,14,08,00,6.70
2016,02,14,08,01,6.70
2016,02,14,08,02,6.70
2016,02,14,08,03,6.70
2016,02,14,08,04,6.70
2016,02,14,08,05,6.70
2016,02,14,08,06,6.70
2016,02,14,08,07,6.70
2016,02,14,08,08,6.70
2016,02,14,08,09,6.70
2016,02,14,08,10,6.80
2016,02,14,08,11,6.80
2016,02,14,08,12,6.80
2016,02,14,08,13,6.80
2016,02,14,08,14,6.80
2016,02,14,08,15,6.80
2016,02,14,08,16,6.80
2016,02,14,08,17,6.80
2016,02,14,08,18,6.80
2016,02,14,08,19,6.80
2016,02,14,08,20,6.80
2016,02,14,08,21,6.80
2016,02,14,08,22,6.80
2016,02,14,08,23,6.80
2016,02,14,08,24,6.80
2016,02,14,08,25,6.80
2016,02,14,08,26,6.80
2016,02,14,08,27,6.80
2016,02,14,08,28,6.80
2016,02,14,08,29,6.80
2016,02,14,08,30,6.90
2016,02,14,08,31,6.90
2016,02,14,08,32,6.90
2016,02,14,08,33,6.90
2016,02,14,08,34,6.90
2016,02,14,08,35,6.90
2016,02,14,08,36,6.90
2016,02,14,08,37,6.90
2016,02,14,08,38,6.90
2016,02,14,08,39,6.90
2016,02,14,08,40,6.90
2016,02,14,08,41,7.00
2016,02,14,08,42,7.00
2016,02,14,08,43,7.00
2016,02,14,08,44,7.00
2016,02,14,08,45,7.00
2016,02,14,08,46,7.00
2016,02,14,08,47,7.00
2016,02,14,08,48,7.10
2016,02,14,08,49,7.10
2016,02,14,08,50,7.10
2016,02,14,08,51,7.10
2016,02,14,08,52,7.10
2016,02,14,08,53,7.10
2016,02,14,08,54,7.10
2016,02,14,08,55,7.10
2016,02,14,08,56,7.10
2016,02,14,08,57,7.10
2016,02,14,08,58,7.10
2016,02,14,08,59,7.10
2016,02,14,09,00,7.20
2016,02,14,09,01,7.20
2016,02,14,09,02,7.20
2016,02,14,09,03,7.20
2016,02,14,09,04,7.20
2016,02,14,09,05,7.20
2016,02,14,09,06,7.20
2016,02,14,09,07,7.20
2016,02,14,09,08,7.20
2016,02,14,09,09,7.20
2016,02,14,09,10,7.20
2016,02,14,09,11,7.20
2016,02,14,09,12,7.20
2016,02,14,09,13,7.20
2016,02,14,09,14,7.20
2016,02,14,09,15,7.20
2016,02,14,09,16,7.30
2016,02,14,09,17,7.30
2016,02,14,09,18,7.30
2016,02,14,09,19,7.30
2016,02,14,09,20,7.30
2016,02,14,09,21,7.30
2016,02,14,09,22,7.30
2016,02,14,09,23,7.30
2016,02,14,09,24,7.30
2016,02,14,09,25,7.30
2016,02,14,09,26,7.30
2016,02,14,09,27,7.30
2016,02,14,09,28,7.30
2016,02,14,09,29,7.30
2016,02,14,09,30,7.30
2016,02,14,09,31,7.30
2016,02,14,09,32,7.30
2016,02,14,09,33,7.40
2016,02,14,09,34,7.40
2016,02,14,09,35,7.40
2016,02,14,09,36,7.40
2016,02,14,09,37,7.40
2016,02,14,09,38,7.40
2016,02,14,09,39,7.40
2016,02,14,09,40,7.40
2016,02,14,09,41,7.40
2016,02,14,09,42,7.40
2016,02,14,09,43,7.40
2016,02,14,09,44,7.40
2016,02,14,09,45,7.40
2016,02,14,09,46,7.40
2016,02,14,09,47,7.40
2016,02,14,09,48,7.40
2016,02,14,09,49,7.40
2016,02,14,09,50,7.40
2016,02,14,09,51,7.40
2016,02,14,09,52,7.40
2016,02,14,09,53,7.40
2016,02,14,09,54,7.40
2016,02,14,09,55,7.40
2016,02,14,09,56,7.40
2016,02,14,09,57,7.40
2016,02,14,09,58,7.40
2016,02,14,09,59,7.40
2016,02,14,10,00,7.40
2016,02,14,10,01,7.40
2016,02,14,10,02,7.40
2016,02,14,10,03,7.40
2016,02,14,10,04,7.40
2016,02,14,10,05,7.40
2016,02,14,10,06,7.40
2016,02,14,10,07,7.40
2016,02,14,10,08,7.40
2016,02,14,10,09,7.40
2016,02,14,10,10,7.40
2016,02,14,10,11,7.40
2016,02,14,10,12,7.40
2016,02,14,10,13,7.40
2016,02,14,10,14,7.40
2016,02,14,10,15,7.40
2016,02,14,10,16,7.40
2016,02,14,10,17,7.40
2016,02,14,10,18,7.40
2016,02,14,10,19,7.40
2016,02,14,10,20,7.40
2016,02,14,10,21,7.40
2016,02,14,10,22,7.50
2016,02,14,10,23,7.50
2016,02,14,10,24,7.50
2016,02,14,10,25,7.50
2016,02,14,10,26,7.50
2016,02,14,10,27,7.50
2016,02,14,10,28,7.50
2016,02,14,10,29,7.50
2016,02,14,10,30,7.60
2016,02,14,10,31,7.60
2016,02,14,10,32,7.60
2016,02,14,10,33,7.60
2016,02,14,10,34,7.60
2016,02,14,10,35,7.60
2016,02,14,10,36,7.60
2016,02,14,10,37,7.60
2016,02,14,10,38,7.60
2016,02,14,10,39,7.60
2016,02,14,10,40,7.70
2016,02,14,10,41,7.70
2016,02,14,10,42,7.70
2016,02,14,10,43,7.70
2016,02,14,10,44,7.70
2016,02,14,10,45,7.70
2016,02,14,10,46,7.70
2016,02,14,10,47,7.70
2016,02,14,10,48,7.80
2016,02,14,10,49,7.80
2016,02,14,10,50,7.80
2016,02,14,10,51,7.80
2016,02,14,10,52,7.80
2016,02,14,10,53,7.80
2016,02,14,10,54,7.80
2016,02,14,10,55,7.80
2016,02,14,10,56,7.80
2016,02,14,10,57,7.80
2016,02,14,10,58,7.80
2016,02,14,10,59,7.80
2016,02,14,11,00,7.80
2016,02,14,11,01,7.80
2016,02,14,11,02,7.80
2016,02,14,11,03,7.80
2016,02,14,11,04,7.80
2016,02,14,11,05,7.80
2016,02,14,11,06,7.80
2016,02,14,11,07,7.80
2016,02,14,11,08,7.80
2016,02,14,11,09,7.80
2016,02,14,11,10,7.80
2016,02,14,11,11,7.80
2016,02,14,11,12,7.80
2016,02,14,11,13,7.80
2016,02,14,11,14,7.80
2016,02,14,11,15,7.80
2016,02,14,11,16,7.90
2016,02,14,11,17,7.80
2016,02,14,11,18,7.90
2016,02,14,11,19,7.90
2016,02,14,11,20,7.90
2016,02,14,11,21,7.90
2016,02,14,11,22,7.90
2016,02,14,11,23,7.90
2016,02,14,11,24,7.90
2016,02,14,11,25,7.90
2016,02,14,11,26,7.90
2016,02,14,11,27,7.90
2016,02,14,11,28,7.90
2016,02,14,11,29,7.90
2016,02,14,11,30,7.90
2016,02,14,11,31,7.90
2016,02,14,11,32,7.90
2016,02,14,11,33,7.90
2016,02,14,11,34,7.90
2016,02,14,11,35,7.90
2016,02,14,11,36,7.90
2016,02,14,11,37,7.90
2016,02,14,11,38,7.90
2016,02,14,11,39,7.90
2016,02,14,11,40,7.90
2016,02,14,11,41,7.90
2016,02,14,11,42,7.90
2016,02,14,11,43,7.90
2016,02,14,11,44,7.90
2016,02,14,11,45,7.90
2016,02,14,11,46,7.90
2016,02,14,11,47,7.90
2016,02,14,11,48,7.90
2016,02,14,11,49,7.90
2016,02,14,11,50,7.90
2016,02,14,11,51,7.90
2016,02,14,11,52,7.90
2016,02,14,11,53,7.90
2016,02,14,11,54,7.90
2016,02,14,11,55,7.90
2016,02,14,11,56,8.00
2016,02,14,11,57,8.00
2016,02,14,11,58,8.00
2016,02,14,11,59,8.00
2016,02,14,12,00,8.00
2016,02,14,12,01,8.00
2016,02,14,12,02,8.00
2016,02,14,12,03,8.10
2016,02,14,12,04,8.10
2016,02,14,12,05,8.10
2016,02,14,12,06,8.10
2016,02,14,12,07,8.10
2016,02,14,12,08,8.10
2016,02,14,12,09,8.10
2016,02,14,12,10,8.10
2016,02,14,12,11,8.20
2016,02,14,12,12,8.20
2016,02,14,12,13,8.20
2016,02,14,12,14,8.20
2016,02,14,12,15,8.20
2016,02,14,12,16,8.20
2016,02,14,12,17,8.20
2016,02,14,12,18,8.20
2016,02,14,12,19,8.20
2016,02,14,12,20,8.20
2016,02,14,12,21,8.20
2016,02,14,12,22,8.20
2016,02,14,12,23,8.20
2016,02,14,12,24,8.20
2016,02,14,12,25,8.20
2016,02,14,12,26,8.20
2016,02,14,12,27,8.20
2016,02,14,12,28,8.30
2016,02,14,12,29,8.20
2016,02,14,12,30,8.30
2016,02,14,12,31,8.30
2016,02,14,12,32,8.30
2016,02,14,12,33,8.30
2016,02,14,12,34,8.30
2016,02,14,12,35,8.30
2016,02,14,12,36,8.30
2016,02,14,12,37,8.30
2016,02,14,12,38,8.30
2016,02,14,12,39,8.30
2016,02,14,12,40,8.30
2016,02,14,12,41,8.40
2016,02,14,12,42,8.30
2016,02,14,12,43,8.30
2016,02,14,12,44,8.30
2016,02,14,12,45,8.30
2016,02,14,12,46,8.40
2016,02,14,12,47,8.40
2016,02,14,12,48,8.40
2016,02,14,12,49,8.40
2016,02,14,12,50,8.50
2016,02,14,12,51,8.40
2016,02,14,12,52,8.40
2016,02,14,12,53,8.50
2016,02,14,12,54,8.50
2016,02,14,12,55,8.50
2016,02,14,12,56,8.50
2016,02,14,12,57,8.50
2016,02,14,12,58,8.50
2016,02,14,12,59,8.50
2016,02,14,13,00,8.50
2016,02,14,13,01,8.50
2016,02,14,13,02,8.50
2016,02,14,13,03,8.50
2016,02,14,13,04,8.50
2016,02,14,13,05,8.60
2016,02,14,13,06,8.60
2016,02,14,13,07,8.60
2016,02,14,13,08,8.60
2016,02,14,13,09,8.60
2016,02,14,13,10,8.60
2016,02,14,13,11,8.70
2016,02,14,13,12,8.70
2016,02,14,13,13,8.70
2016,02,14,13,14,8.70
2016,02,14,13,15,8.70
2016,02,14,13,16,8.70
2016,02,14,13,17,8.70
2016,02,14,13,18,8.70
2016,02,14,13,19,8.70
2016,02,14,13,20,8.70
2016,02,14,13,21,8.70
2016,02,14,13,22,8.70
2016,02,14,13,23,8.70
2016,02,14,13,24,8.70
2016,02,14,13,25,8.70
2016,02,14,13,26,8.70
2016,02,14,13,27,8.80
2016,02,14,13,28,8.80
2016,02,14,13,29,8.80
2016,02,14,13,30,8.80
2016,02,14,13,31,8.80
2016,02,14,13,32,8.80
2016,02,14,13,33,8.80
2016,02,14,13,34,8.80
2016,02,14,13,35,8.80
2016,02,14,13,36,8.80
2016,02,14,13,37,8.90
2016,02,14,13,38,8.90
2016,02,14,13,39,8.90
2016,02,14,13,40,8.90
2016,02,14,13,41,8.90
2016,02,14,13,42,9.00
2016,02,14,13,43,9.00
2016,02,14,13,44,9.00
2016,02,14,13,45,9.00
2016,02,14,13,46,9.00
2016,02,14,13,47,9.00
2016,02,14,13,48,9.00
2016,02,14,13,49,9.10
2016,02,14,13,50,9.10
2016,02,14,13,51,9.10
2016,02,14,13,52,9.10
2016,02,14,13,53,9.20
2016,02,14,13,54,9.20
2016,02,14,13,55,9.20
2016,02,14,13,56,9.20
2016,02,14,13,57,9.20
2016,02,14,13,58,9.30
2016,02,14,13,59,9.30
2016,02,14,14,00,9.30
2016,02,14,14,01,9.30
2016,02,14,14,02,9.30
2016,02,14,14,03,9.30
2016,02,14,14,04,9.30
2016,02,14,14,05,9.30
2016,02,14,14,06,9.30
2016,02,14,14,07,9.30
2016,02,14,14,08,9.30
2016,02,14,14,09,9.40
2016,02,14,14,10,9.40
2016,02,14,14,11,9.40
2016,02,14,14,12,9.40
2016,02,14,14,13,9.40
2016,02,14,14,14,9.40
2016,02,14,14,15,9.40
2016,02,14,14,16,9.40
2016,02,14,14,17,9.40
2016,02,14,14,18,9.40
2016,02,14,14,19,9.50
2016,02,14,14,20,9.50
2016,02,14,14,21,9.50
2016,02,14,14,22,9.50
2016,02,14,14,23,9.50
2016,02,14,14,24,9.50
2016,02,14,14,25,9.50
2016,02,14,14,26,9.50
2016,02,14,14,27,9.50
2016,02,14,14,28,9.50
2016,02,14,14,29,9.60
2016,02,14,14,30,9.60
2016,02,14,14,31,9.60
2016,02,14,14,32,9.60
2016,02,14,14,33,9.60
2016,02,14,14,34,9.60
2016,02,14,14,35,9.60
2016,02,14,14,36,9.60
2016,02,14,14,37,9.60
2016,02,14,14,38,9.60
2016,02,14,14,39,9.60
2016,02,14,14,40,9.60
2016,02,14,14,41,9.60
2016,02,14,14,42,9.60
2016,02,14,14,43,9.60
2016,02,14,14,44,9.60
2016,02,14,14,45,9.60
2016,02,14,14,46,9.70
2016,02,14,14,47,9.70
2016,02,14,14,48,9.70
2016,02,14,14,49,9.70
2016,02,14,14,50,9.70
2016,02,14,14,51,9.70
2016,02,14,14,52,9.70
2016,02,14,14,53,9.70
2016,02,14,14,54,9.80
2016,02,14,14,55,9.80
2016,02,14,14,56,9.80
2016,02,14,14,57,9.80
2016,02,14,14,58,9.80
2016,02,14,14,59,9.80
2016,02,14,15,00,9.90
2016,02,14,15,01,9.90
2016,02,14,15,02,9.90
2016,02,14,15,03,9.90
2016,02,14,15,04,10.00
2016,02,14,15,05,10.00
2016,02,14,15,06,10.00
2016,02,14,15,07,10.10
2016,02,14,15,08,10.10
2016,02,14,15,09,10.20
2016,02,14,15,10,10.20
2016,02,14,15,11,10.20
2016,02,14,15,12,10.20
2016,02,14,15,13,10.20
2016,02,14,15,14,10.20
2016,02,14,15,15,10.20
2016,02,14,15,16,10.20
2016,02,14,15,17,10.20
2016,02,14,15,18,10.30
2016,02,14,15,19,10.30
2016,02,14,15,20,10.30
2016,02,14,15,21,10.30
2016,02,14,15,22,10.40
2016,02,14,15,23,10.40
2016,02,14,15,24,10.40
2016,02,14,15,25,10.40
2016,02,14,15,26,10.40
2016,02,14,15,27,10.40
2016,02,14,15,28,10.40
2016,02,14,15,29,10.40
2016,02,14,15,30,10.40
2016,02,14,15,31,10.40
2016,02,14,15,32,10.40
2016,02,14,15,33,10.40
2016,02,14,15,34,10.40
2016,02,14,15,35,10.40
2016,02,14,15,36,10.40
2016,02,14,15,37,10.40
2016,02,14,15,38,10.40
2016,02,14,15,39,10.40
2016,02,14,15,40,10.40
2016,02,14,15,41,10.40
2016,02,14,15,42,10.40
2016,02,14,15,43,10.40
2016,02,14,15,44,10.50
2016,02,14,15,45,10.50
2016,02,14,15,46,10.60
2016,02,14,15,47,10.60
2016,02,14,15,48,10.60
2016,02,14,15,49,10.60
2016,02,14,15,50,10.60
2016,02,14,15,51,10.60
2016,02,14,15,52,10.60
2016,02,14,15,53,10.70
2016,02,14,15,54,10.70
2016,02,14,15,55,10.70
2016,02,14,15,56,10.80
2016,02,14,15,57,10.80
2016,02,14,15,58,10.80
2016,02,14,15,59,10.90
2016,02,14,16,00,10.90
2016,02,14,16,01,11.00
2016,02,14,16,02,11.00
2016,02,14,16,03,11.10
2016,02,14,16,04,11.10
2016,02,14,16,05,11.20
2016,02,14,16,06,11.20
2016,02,14,16,07,11.10
2016,02,14,16,08,11.10
2016,02,14,16,09,11.00
2016,02,14,16,10,11.00
2016,02,14,16,11,11.00
2016,02,14,16,12,10.90
2016,02,14,16,13,10.90
2016,02,14,16,14,10.80
2016,02,14,16,15,10.80
2016,02,14,16,16,10.80
2016,02,14,16,17,10.80
2016,02,14,16,18,10.90
2016,02,14,16,19,10.90
2016,02,14,16,20,10.90
2016,02,14,16,21,10.90
2016,02,14,16,22,10.90
2016,02,14,16,23,10.90
2016,02,14,16,24,10.80
2016,02,14,16,25,10.80
2016,02,14,16,26,10.80
2016,02,14,16,27,10.70
2016,02,14,16,28,10.70
2016,02,14,16,29,10.70
2016,02,14,16,30,10.60
2016,02,14,16,31,10.60
2016,02,14,16,32,10.50
2016,02,14,16,33,10.50
2016,02,14,16,34,10.50
2016,02,14,16,35,10.50
2016,02,14,16,36,10.40
2016,02,14,16,37,10.40
2016,02,14,16,38,10.40
2016,02,14,16,39,10.30
2016,02,14,16,40,10.30
2016,02,14,16,41,10.30
2016,02,14,16,42,10.30
2016,02,14,16,43,10.30
2016,02,14,16,44,10.30
2016,02,14,16,45,10.30
2016,02,14,16,46,10.20
2016,02,14,16,47,10.20
2016,02,14,16,48,10.30
2016,02,14,16,49,10.20
2016,02,14,16,50,10.20
2016,02,14,16,51,10.20
2016,02,14,16,52,10.20
2016,02,14,16,53,10.20
2016,02,14,16,54,10.20
2016,02,14,16,55,10.20
2016,02,14,16,56,10.20
2016,02,14,16,57,10.20
2016,02,14,16,58,10.20
2016,02,14,16,59,10.20
2016,02,14,17,00,10.20
2016,02,14,17,01,10.20
2016,02,14,17,02,10.20
2016,02,14,17,03,10.20
2016,02,14,17,04,10.20
2016,02,14,17,05,10.20
2016,02,14,17,06,10.20
2016,02,14,17,07,10.20
2016,02,14,17,08,10.20
2016,02,14,17,09,10.10
2016,02,14,17,10,10.10
2016,02,14,17,11,10.10
2016,02,14,17,12,10.10
2016,02,14,17,13,10.10
2016,02,14,17,14,10.10
2016,02,14,17,15,10.10
2016,02,14,17,16,10.10
2016,02,14,17,17,10.10
2016,02,14,17,18,10.00
2016,02,14,17,19,10.00
2016,02,14,17,20,10.00
2016,02,14,17,21,10.00
2016,02,14,17,22,10.00
2016,02,14,17,23,10.00
2016,02,14,17,24,10.00
2016,02,14,17,25,10.00
2016,02,14,17,26,10.00
2016,02,14,17,27,10.00
2016,02,14,17,28,10.00
2016,02,14,17,29,10.00
2016,02,14,17,30,10.10
2016,02,14,17,31,10.10
2016,02,14,17,32,10.00
2016,02,14,17,33,10.00
2016,02,14,17,34,10.00
2016,02,14,17,35,10.00
2016,02,14,17,36,10.10
2016,02,14,17,37,10.00
2016,02,14,17,38,10.00
2016,02,14,17,39,10.00
2016,02,14,17,40,9.90
2016,02,14,17,41,9.90
2016,02,14,17,42,9.90
2016,02,14,17,43,9.90
2016,02,14,17,44,9.90
2016,02,14,17,45,9.90
2016,02,14,17,46,9.90
2016,02,14,17,47,9.90
2016,02,14,17,48,9.90
2016,02,14,17,49,9.90
2016,02,14,17,50,9.90
2016,02,14,17,51,9.90
2016,02,14,17,52,9.90
2016,02,14,17,53,9.90
2016,02,14,17,54,9.90
2016,02,14,17,55,9.80
2016,02,14,17,56,9.80
2016,02,14,17,57,9.80
2016,02,14,17,58,9.80
2016,02,14,17,59,9.80